Date String (YYYY-MM-DD hh:mm:ss) UTC,Instrument flags,Ambient pressure (hPa),Sample flow (lpm),Bypass flow (lpm),Sample temperature (°C),Ambient temperature (°C),ASC tube jacket temperature (°C),LED temperature (°C),Box temperature (°C),Sample RH (%),Span deviation,Mass concentration (μg/m³),Mass concentration (μg/m³),Mass concentration (μg/m³)
DateTimeUTC,F1_M11,P_M11,Q1_M11,Q2_M11,T1_M11,T2_M11,T3_M11,T4_M11,T5_M11,U1_M11,ZSPAN_M11,X0_M11,X2_M11,X1_M11
2022-07-11 01:00:00,,0831.2,5.00,0.00,42.1,40.5,00.0,50.8,43.0,11.2,0000.0,0007.62,0003.76,0003.26
2022-07-11 01:01:00,,0831.2,5.00,0.00,42.1,40.5,00.0,50.8,43.0,11.2,0000.0,0007.70,0003.79,0003.29
2022-07-11 01:02:00,,0831.2,5.00,0.00,42.1,40.5,00.0,50.8,43.0,11.2,0000.0,0007.78,0003.83,0003.32
2022-07-11 01:03:00,,0831.2,5.00,0.00,42.1,40.5,00.0,50.8,43.0,11.3,0000.0,0007.86,0003.87,0003.36
2022-07-11 01:04:00,,0831.2,5.00,0.00,42.1,40.5,00.0,50.7,43.0,11.4,0000.0,0008.02,0003.93,0003.39
2022-07-11 01:05:00,,0831.2,5.01,0.00,42.1,40.5,00.0,50.7,43.0,11.3,0000.0,0008.41,0003.96,0003.41
2022-07-11 01:06:00,,0831.1,4.99,0.00,42.1,40.5,00.0,50.7,42.9,11.4,0000.0,0008.24,0003.96,0003.43
2022-07-11 01:07:00,,0831.2,5.01,0.00,42.1,40.5,00.0,50.7,42.9,11.5,0000.0,0008.00,0003.97,0003.45
2022-07-11 01:08:00,,0831.2,5.00,0.00,42.1,40.4,00.0,50.7,42.9,11.6,0000.0,0007.76,0003.95,0003.46
2022-07-11 01:09:00,,0831.2,5.00,0.00,42.0,40.4,00.0,50.7,42.9,11.5,0000.0,0008.04,0003.97,0003.48
2022-07-11 01:10:00,,0831.1,5.00,0.00,42.0,40.4,00.0,50.7,42.9,11.6,0000.0,0007.94,0003.95,0003.47
2022-07-11 01:11:00,,0831.1,5.01,0.00,42.0,40.3,00.0,50.7,42.9,11.5,0000.0,0007.84,0003.92,0003.46
2022-07-11 01:12:00,,0831.0,5.00,0.00,42.0,40.3,00.0,50.7,42.9,11.4,0000.0,0007.75,0003.90,0003.45
2022-07-11 01:13:00,,0831.0,4.97,0.00,42.0,40.3,00.0,50.6,42.8,11.4,0000.0,0007.86,0003.87,0003.42
2022-07-11 01:14:00,,0831.0,5.01,0.00,42.0,40.3,00.0,50.6,42.8,11.4,0000.0,0008.88,0003.87,0003.41
2022-07-11 01:15:00,,0831.0,4.99,0.00,42.0,40.3,00.0,50.6,42.8,10.9,0000.0,0009.03,0003.86,0003.39
2022-07-11 01:16:00,,0830.9,5.00,0.00,42.0,40.3,00.0,50.6,42.8,10.8,0000.0,0008.51,0003.83,0003.40
2022-07-11 01:17:00,,0830.9,5.01,0.00,41.9,40.3,00.0,50.6,42.8,10.8,0000.0,0008.45,0003.83,0003.42
2022-07-11 01:18:00,,0830.9,5.00,0.00,41.9,40.3,00.0,50.6,42.8,10.8,0000.0,0008.48,0003.88,0003.44
2022-07-11 01:19:00,,0830.9,4.99,0.00,41.9,40.3,00.0,50.6,42.8,10.9,0000.0,0008.44,0003.90,0003.47
2022-07-11 01:20:00,,0830.9,5.00,0.00,41.9,40.3,00.0,50.6,42.8,11.0,0000.0,0008.24,0003.95,0003.51
2022-07-11 01:21:00,,0831.0,5.00,0.00,41.9,40.3,00.0,50.5,42.8,11.1,0000.0,0008.33,0004.02,0003.56
2022-07-11 01:22:00,,0830.9,5.01,0.00,41.9,40.3,00.0,50.5,42.8,11.0,0000.0,0008.56,0004.07,0003.61
2022-07-11 01:23:00,,0830.9,5.00,0.00,41.9,40.3,00.0,50.5,42.8,11.0,0000.0,0008.60,0004.12,0003.66
2022-07-11 01:24:00,,0830.9,4.99,0.00,41.9,40.3,00.0,50.5,42.8,11.1,0000.0,0008.48,0004.17,0003.71
2022-07-11 01:25:00,,0830.9,5.01,0.00,41.9,40.3,00.0,50.5,42.8,11.1,0000.0,0007.53,0004.21,0003.76
2022-07-11 01:26:00,,0830.8,5.00,0.00,41.9,40.3,00.0,50.5,42.8,11.1,0000.0,0007.39,0004.25,0003.80
2022-07-11 01:27:00,,0830.9,5.00,0.00,41.9,40.3,00.0,50.5,42.7,11.1,0000.0,0007.45,0004.26,0003.80
2022-07-11 01:28:00,,0830.7,5.00,0.00,41.8,40.3,00.0,50.5,42.7,11.1,0000.0,0007.43,0004.25,0003.80
2022-07-11 01:29:00,,0830.7,5.01,0.00,41.8,40.3,00.0,50.5,42.7,11.0,0000.0,0007.43,0004.23,0003.78
2022-07-11 01:30:00,,0830.7,5.00,0.00,41.8,40.3,00.0,50.5,42.7,11.0,0000.0,0007.25,0004.18,0003.75
2022-07-11 01:31:00,,0830.6,5.01,0.00,41.8,40.2,00.0,50.5,42.7,11.0,0000.0,0006.88,0004.11,0003.71
2022-07-11 01:32:00,,0830.6,5.00,0.00,41.8,40.2,00.0,50.5,42.7,10.9,0000.0,0006.68,0004.05,0003.68
2022-07-11 01:33:00,,0830.6,5.00,0.00,41.8,40.2,00.0,50.4,42.7,10.9,0000.0,0006.21,0004.01,0003.65
2022-07-11 01:34:00,,0830.6,5.00,0.00,41.8,40.2,00.0,50.4,42.7,10.9,0000.0,0006.17,0003.98,0003.63
2022-07-11 01:35:00,,0830.6,5.00,0.00,41.8,40.1,00.0,50.4,42.7,11.0,0000.0,0006.19,0003.98,0003.62
2022-07-11 01:36:00,,0830.5,5.00,0.00,41.8,40.1,00.0,50.4,42.6,11.0,0000.0,0005.91,0003.93,0003.61
2022-07-11 01:37:00,,0830.5,5.00,0.00,41.7,40.1,00.0,50.4,42.6,11.0,0000.0,0005.60,0003.90,0003.60
2022-07-11 01:38:00,,0830.5,5.00,0.00,41.7,40.1,00.0,50.4,42.6,10.9,0000.0,0005.59,0003.92,0003.62
2022-07-11 01:39:00,,0830.5,4.99,0.00,41.7,40.1,00.0,50.4,42.6,10.9,0000.0,0005.67,0003.94,0003.63
2022-07-11 01:40:00,,0830.6,4.99,0.00,41.7,40.1,00.0,50.4,42.6,10.9,0000.0,0005.63,0003.94,0003.65
2022-07-11 01:41:00,,0830.6,5.01,0.00,41.7,40.0,00.0,50.4,42.6,11.0,0000.0,0005.88,0003.97,0003.68
2022-07-11 01:42:00,,0830.7,5.01,0.00,41.7,40.0,00.0,50.3,42.6,10.9,0000.0,0005.87,0003.98,0003.68
2022-07-11 01:43:00,,0830.6,4.99,0.00,41.7,40.0,00.0,50.3,42.6,10.9,0000.0,0005.84,0003.98,0003.68
2022-07-11 01:44:00,,0830.6,4.99,0.00,41.7,40.0,00.0,50.3,42.5,11.0,0000.0,0005.93,0003.95,0003.67
2022-07-11 01:45:00,,0830.6,4.99,0.00,41.7,39.9,00.0,50.3,42.5,10.9,0000.0,0006.32,0003.90,0003.63
2022-07-11 01:46:00,,0830.5,5.00,0.00,41.6,39.9,00.0,50.3,42.5,10.8,0000.0,0006.07,0003.83,0003.58
2022-07-11 01:47:00,,0830.5,5.01,0.00,41.6,39.9,00.0,50.3,42.5,10.8,0000.0,0005.91,0003.76,0003.52
2022-07-11 01:48:00,,0830.5,5.00,0.00,41.6,39.9,00.0,50.3,42.5,10.7,0000.0,0005.92,0003.70,0003.45
2022-07-11 01:49:00,,0830.5,5.01,0.00,41.6,39.9,00.0,50.2,42.5,10.7,0000.0,0005.74,0003.60,0003.36
2022-07-11 01:50:00,,0830.5,5.00,0.00,41.6,39.9,00.0,50.2,42.5,10.8,0000.0,0005.42,0003.47,0003.26
2022-07-11 01:51:00,,0830.5,5.00,0.00,41.6,39.9,00.0,50.2,42.5,10.7,0000.0,0005.19,0003.35,0003.17
2022-07-11 01:52:00,,0830.5,5.00,0.00,41.6,39.9,00.0,50.2,42.5,10.8,0000.0,0004.91,0003.28,0003.05
2022-07-11 01:53:00,,0830.4,5.00,0.00,41.6,39.9,00.0,50.2,42.5,10.7,0000.0,0004.79,0003.19,0002.89
2022-07-11 01:54:00,,0830.5,5.00,0.00,41.5,39.9,00.0,50.2,42.4,10.5,0000.0,0004.60,0003.08,0002.74
2022-07-11 01:55:00,,0830.4,5.00,0.00,41.5,39.8,00.0,50.2,42.4,10.8,0000.0,0004.50,0002.98,0002.62
2022-07-11 01:56:00,,0830.3,4.99,0.00,41.5,39.8,00.0,50.2,42.4,10.8,0000.0,0003.87,0002.94,0002.54
2022-07-11 01:57:00,,0830.4,5.00,0.00,41.5,39.8,00.0,50.2,42.4,10.8,0000.0,0003.78,0002.86,0002.47
2022-07-11 01:58:00,,0830.4,4.99,0.00,41.5,39.8,00.0,50.1,42.4,10.7,0000.0,0003.74,0002.80,0002.42
2022-07-11 01:59:00,,0830.3,4.99,0.00,41.5,39.8,00.0,50.1,42.4,10.6,0000.0,0003.59,0002.73,0002.36
